Powrót do katalogu

COSMOS 1275 DEB

AktywnyPO
NORAD 12729·DEBRIS·🇷🇺 Russia

Wystrzelony Jun 4, 1981 z Plesetsk Cosmodrome

Loading…

Następne Przeloty (najbliższe 24 godziny)

TLE

ŚwieżeSource: Space-Track

Epoka: Sep 14, 2026, 09:25 UTC

1 12729U 81053BW  26257.39250743  .00000437  00000-0  53453-3 0  9990
2 12729  83.0457  35.3403 0127016 249.4223 137.2374 13.60470772 91780

Śledź COSMOS 1275 DEB w czasie rzeczywistym z AllMySat

Download on the App Store